Location: Appeville
(49.3218°N, 1.3427°W)
Time: 18:30:40
(UTC+00:00)

ATLAS CENTAUR R/B - Pass Details

Date: 08 December 2019
Orbit: 454 x 694 km, 64.6° (Epoch: 20 January)

Event Time Altitude Azimuth Distance (km) Brightness Sun altitude
Exits shadow 05:57:25 12° 346° (NNW) 1,838 3.7 -16.9°
Maximum altitude 06:00:00 18° 24° (NNE) 1,458 3.6 -16.5°
Drops below altitude 10° 06:02:54 10° 69° (ENE) 1,850 4.8 -16.1°
Sets 06:05:37 0° 89° (E) 2,690 6.3 -15.7°
